Location: Boullarre
(49.1305°N, 3.0047°E)
Time: 22:29:51
(UTC+00:00)

S3M - Pass Details

Date: 03 February 2023
Orbit: 948 x 1005 km, 83.0° (Epoch: 01 April)

Event Time Altitude Azimuth Distance (km) Brightness Sun altitude
Rises 18:28:40 0° 166° (SSE) 3,718 7.0 -16.7°
Reaches altitude 10° 18:31:17 10° 160° (SSE) 2,774 6.2 -17.1°
Maximum altitude 18:37:19 46° 90° (E) 1,324 4.2 -18.1°
Drops below altitude 10° 18:43:21 10° 19° (NNE) 2,781 6.2 -19.1°
Sets 18:45:58 0° 14° (NNE) 3,729 6.9 -19.5°
